SPACEMOBILE-008

Last updated on Sun Aug 09 2026 00:02:10 GMT+0000 (Coordinated Universal Time)

1 69589U 26139A 26220.39832614 .00001116 00000+0 79619-4 0 9990 2 69589 52.9960 25.5157 0005198 114.0577 246.0958 15.12875652 7882
UTC large
Height (km)
Speed (km/s)
/
Latitude / Longitude
Inclination (degrees)
Orbital Period (minutes)
Azimuth
Elevation
Range (km)
Doppler Factor

Next 0 passes for location: London (51.5072 / 0.1276)

No passes found over London.
SPACEMOBILE-008